Location: Albany
(35.0170°S, 117.8920°E)
Time: 17:13:25
(UTC+08:00)

Transit 2A - Pass Details

Date: 23 January 2021
Orbit: 601 x 958 km, 66.7° (Epoch: 02 March)

Event Time Altitude Azimuth Distance (km) Brightness Sun altitude
Rises 02:12:11 0° 215° (SW) 3,571 9.8 -29.3°
Reaches altitude 10° 02:14:47 10° 221° (SW) 2,657 9.0 -29.1°
Enters shadow 02:18:26 32° 245° (WSW) 1,574 7.5 -28.7°
Maximum altitude 02:20:40 44° 290° (WNW) 1,304 - -28.4°
Drops below altitude 10° 02:26:37 10° 360° (N) 2,681 - -27.8°
Sets 02:29:16 0° 6° (N) 3,606 - -27.5°
